Time,TemperatureF,DewpointF,PressureIn,WindDirection,WindDirectionDegrees,WindSpeedMPH,WindSpeedGustMPH,Humidity,HourlyPrecipIn,Conditions,Clouds,dailyrainin,SolarRadiationWatts/m^2,SoftwareType,DateUTC
2013-08-14 00:00:00,66.0,61.7,29.91,North,349,2.0,5.0,86,0.00,,---,0.10,0.00,VWS V14.01,2013-08-14 05:00:00,
2013-08-14 00:03:00,66.0,61.7,29.91,NNW,342,5.0,5.0,86,0.00,,---,0.00,0.00,VWS V14.01,2013-08-14 05:03:00,
2013-08-14 00:05:00,65.8,61.5,29.91,NW,323,4.0,6.0,86,0.00,,---,0.00,0.00,VWS V14.01,2013-08-14 05:05:00,
2013-08-14 00:08:00,65.8,61.2,29.91,SSE,158,5.0,6.0,85,0.00,,---,0.00,0.00,VWS V14.01,2013-08-14 05:08:00,
2013-08-14 00:10:00,65.8,61.2,29.91,North,0,5.0,6.0,85,0.00,,---,0.00,0.00,VWS V14.01,2013-08-14 05:10:00,
2013-08-14 00:13:00,65.8,61.2,29.91,SSE,155,5.0,6.0,85,0.00,,---,0.00,0.00,VWS V14.01,2013-08-14 05:13:00,
2013-08-14 00:15:00,65.8,61.2,29.91,South,175,5.0,6.0,85,0.00,,---,0.00,0.00,VWS V14.01,2013-08-14 05:15:00,
2013-08-14 00:18:00,65.6,61.0,29.91,ESE,113,6.0,6.0,85,0.00,,---,0.00,0.00,VWS V14.01,2013-08-14 05:18:00,
2013-08-14 00:23:00,65.6,61.3,29.91,North,352,5.0,6.0,86,0.00,,---,0.00,0.00,VWS V14.01,2013-08-14 05:23:00,
2013-08-14 00:25:00,65.5,61.2,29.91,SW,224,5.0,6.0,86,0.00,,---,0.00,0.00,VWS V14.01,2013-08-14 05:25:00,
2013-08-14 00:28:00,65.5,61.2,29.91,North,0,6.0,6.0,86,0.00,,---,0.00,0.00,VWS V14.01,2013-08-14 05:28:00,
2013-08-14 00:30:00,65.5,61.2,29.91,NNW,346,4.0,6.0,86,0.00,,---,0.00,0.00,VWS V14.01,2013-08-14 05:30:00,
2013-08-14 00:33:00,65.5,61.2,29.91,NNW,337,5.0,6.0,86,0.00,,---,0.00,0.00,VWS V14.01,2013-08-14 05:33:00,
2013-08-14 00:35:00,65.5,61.2,29.91,NNW,343,6.0,6.0,86,0.00,,---,0.00,0.00,VWS V14.01,2013-08-14 05:35:00,
2013-08-14 00:38:00,65.3,61.0,29.91,NNW,344,5.0,6.0,86,0.00,,---,0.00,0.00,VWS V14.01,2013-08-14 05:38:00,
2013-08-14 00:40:00,65.3,61.0,29.91,North,0,5.0,6.0,86,0.00,,---,0.00,0.00,VWS V14.01,2013-08-14 05:40:00,
2013-08-14 00:43:00,65.3,61.0,29.91,North,0,5.0,6.0,86,0.00,,---,0.00,0.00,VWS V14.01,2013-08-14 05:43:00,
2013-08-14 00:45:00,65.3,61.0,29.91,North,0,5.0,6.0,86,0.00,,---,0.00,0.00,VWS V14.01,2013-08-14 05:45:00,
2013-08-14 00:49:00,65.3,61.0,29.91,North,0,5.0,6.0,86,0.00,,---,0.00,0.00,VWS V14.01,2013-08-14 05:49:00,
2013-08-14 00:50:00,65.3,61.0,29.91,SSE,162,5.0,6.0,86,0.00,,---,0.00,0.00,VWS V14.01,2013-08-14 05:50:00,
2013-08-14 00:54:00,65.2,60.9,29.91,ESE,119,5.0,6.0,86,0.00,,---,0.00,0.00,VWS V14.01,2013-08-14 05:54:00,
2013-08-14 00:55:00,65.2,60.9,29.91,West,264,5.0,6.0,86,0.00,,---,0.00,0.00,VWS V14.01,2013-08-14 05:55:00,
2013-08-14 00:59:00,65.2,61.2,29.91,NNW,332,6.0,6.0,87,0.00,,---,0.00,0.00,VWS V14.01,2013-08-14 05:59:00,
2013-08-14 01:00:00,65.2,61.2,29.91,SW,233,5.0,6.0,87,0.00,,---,0.00,0.00,VWS V14.01,2013-08-14 06:00:00,
2013-08-14 01:04:00,65.0,61.0,29.91,NNW,346,6.0,6.0,87,0.00,,---,0.00,0.00,VWS V14.01,2013-08-14 06:04:00,
2013-08-14 01:05:00,65.0,61.0,29.91,SSE,154,5.0,6.0,87,0.00,,---,0.00,0.00,VWS V14.01,2013-08-14 06:05:00,
2013-08-14 01:09:00,64.8,60.8,29.91,SW,227,4.0,6.0,87,0.00,,---,0.00,0.00,VWS V14.01,2013-08-14 06:09:00,
2013-08-14 01:10:00,64.8,60.8,29.91,NNW,342,3.0,6.0,87,0.00,,---,0.00,0.00,VWS V14.01,2013-08-14 06:10:00,
2013-08-14 01:14:00,64.7,60.8,29.91,SSW,205,3.0,4.0,87,0.00,,---,0.00,0.00,VWS V14.01,2013-08-14 06:14:00,
2013-08-14 01:15:00,64.7,60.8,29.91,North,354,3.0,5.0,87,0.00,,---,0.00,0.00,VWS V14.01,2013-08-14 06:15:00,
2013-08-14 01:19:00,64.7,60.8,29.91,South,182,6.0,6.0,87,0.00,,---,0.00,0.00,VWS V14.01,2013-08-14 06:19:00,
2013-08-14 01:24:00,64.7,60.8,29.91,East,79,6.0,7.0,87,0.00,,---,0.00,0.00,VWS V14.01,2013-08-14 06:24:00,
2013-08-14 01:25:00,64.7,60.8,29.91,SSE,164,5.0,7.0,87,0.00,,---,0.00,0.00,VWS V14.01,2013-08-14 06:25:00,
2013-08-14 01:29:00,64.7,60.8,29.91,SW,226,5.0,6.0,87,0.00,,---,0.00,0.00,VWS V14.01,2013-08-14 06:29:00,
2013-08-14 01:30:00,64.7,60.8,29.91,North,349,3.0,6.0,87,0.00,,---,0.00,0.00,VWS V14.01,2013-08-14 06:30:00,
2013-08-14 01:34:00,64.7,60.8,29.91,North,0,4.0,5.0,87,0.00,,---,0.00,0.00,VWS V14.01,2013-08-14 06:34:00,
2013-08-14 01:35:00,64.7,60.8,29.91,NW,326,5.0,5.0,87,0.00,,---,0.00,0.00,VWS V14.01,2013-08-14 06:35:00,
2013-08-14 01:39:00,64.5,60.5,29.91,WSW,239,3.0,5.0,87,0.00,,---,0.00,0.00,VWS V14.01,2013-08-14 06:39:00,
2013-08-14 01:40:00,64.5,60.5,29.91,North,0,3.0,5.0,87,0.00,,---,0.00,0.00,VWS V14.01,2013-08-14 06:40:00,
2013-08-14 01:44:00,64.3,60.7,29.91,SW,220,3.0,5.0,88,0.00,,---,0.00,0.00,VWS V14.01,2013-08-14 06:44:00,
2013-08-14 01:45:00,64.3,60.3,29.91,North,352,3.0,5.0,87,0.00,,---,0.00,0.00,VWS V14.01,2013-08-14 06:45:00,
2013-08-14 01:49:00,64.3,60.7,29.91,North,0,3.0,5.0,88,0.00,,---,0.00,0.00,VWS V14.01,2013-08-14 06:49:00,
2013-08-14 01:50:00,64.3,60.7,29.91,North,0,5.0,5.0,88,0.00,,---,0.00,0.00,VWS V14.01,2013-08-14 06:50:00,
2013-08-14 01:54:00,64.3,60.7,29.91,West,275,3.0,5.0,88,0.00,,---,0.00,0.00,VWS V14.01,2013-08-14 06:54:00,
2013-08-14 01:55:00,64.3,60.7,29.91,North,350,3.0,5.0,88,0.00,,---,0.00,0.00,VWS V14.01,2013-08-14 06:55:00,
2013-08-14 02:00:00,64.2,60.6,29.91,South,175,4.0,5.0,88,0.00,,---,0.00,0.00,VWS V14.01,2013-08-14 07:00:00,
2013-08-14 02:05:00,64.2,60.6,29.91,NNW,340,4.0,5.0,88,0.00,,---,0.00,0.00,VWS V14.01,2013-08-14 07:05:00,
2013-08-14 02:10:00,64.2,60.6,29.91,North,357,1.0,3.0,88,0.00,,---,0.00,0.00,VWS V14.01,2013-08-14 07:10:00,
2013-08-14 02:15:00,64.0,60.4,29.92,North,359,0.0,0.0,88,0.00,,---,0.00,0.00,VWS V14.01,2013-08-14 07:15:00,
2013-08-14 02:20:00,63.9,60.6,29.92,NNW,335,0.0,0.0,89,0.00,,---,0.00,0.00,VWS V14.01,2013-08-14 07:20:00,
2013-08-14 02:25:00,63.9,60.6,29.92,NNW,342,0.0,0.0,89,0.00,,---,0.00,0.00,VWS V14.01,2013-08-14 07:25:00,
2013-08-14 02:30:00,63.9,60.6,29.91,North,350,0.0,0.0,89,0.00,,---,0.00,0.00,VWS V14.01,2013-08-14 07:30:00,
2013-08-14 02:35:00,63.7,60.4,29.91,North,359,0.0,0.0,89,0.00,,---,0.00,0.00,VWS V14.01,2013-08-14 07:35:00,
2013-08-14 02:40:00,63.7,60.7,29.91,WSW,256,0.0,0.0,90,0.00,,---,0.00,0.00,VWS V14.01,2013-08-14 07:40:00,
2013-08-14 02:45:00,63.5,60.5,29.91,North,352,0.0,0.0,90,0.00,,---,0.00,0.00,VWS V14.01,2013-08-14 07:45:00,
2013-08-14 02:50:00,63.5,60.5,29.91,North,0,0.0,0.0,90,0.00,,---,0.00,0.00,VWS V14.01,2013-08-14 07:50:00,
2013-08-14 02:55:00,63.5,60.5,29.91,North,0,0.0,0.0,90,0.00,,---,0.00,0.00,VWS V14.01,2013-08-14 07:55:00,
2013-08-14 03:00:00,63.4,60.4,29.91,North,0,3.0,5.0,90,0.00,,---,0.00,0.00,VWS V14.01,2013-08-14 08:00:00,
2013-08-14 03:05:00,63.5,60.8,29.91,WSW,239,2.0,5.0,91,0.00,,---,0.00,0.00,VWS V14.01,2013-08-14 08:05:00,
2013-08-14 03:10:00,63.4,60.7,29.91,North,0,3.0,3.0,91,0.00,,---,0.00,0.00,VWS V14.01,2013-08-14 08:10:00,
2013-08-14 03:15:00,63.4,60.7,29.92,NNW,344,0.0,0.0,91,0.00,,---,0.00,0.00,VWS V14.01,2013-08-14 08:15:00,
2013-08-14 03:20:00,63.2,60.5,29.92,North,0,0.0,0.0,91,0.00,,---,0.00,0.00,VWS V14.01,2013-08-14 08:20:00,
2013-08-14 03:21:00,63.2,60.5,29.92,North,0,0.0,0.0,91,0.00,,---,0.00,0.00,VWS V14.01,2013-08-14 08:21:00,
2013-08-14 03:25:00,63.1,60.4,29.92,North,0,0.0,0.0,91,0.00,,---,0.00,0.00,VWS V14.01,2013-08-14 08:25:00,
2013-08-14 03:26:00,63.1,60.4,29.92,NNW,346,0.0,0.0,91,0.00,,---,0.00,0.00,VWS V14.01,2013-08-14 08:26:00,
2013-08-14 03:30:00,62.9,60.2,29.92,NNW,343,0.0,0.0,91,0.00,,---,0.00,0.00,VWS V14.01,2013-08-14 08:30:00,
2013-08-14 03:31:00,62.9,60.2,29.92,North,0,0.0,0.0,91,0.00,,---,0.00,0.00,VWS V14.01,2013-08-14 08:31:00,
2013-08-14 03:35:00,62.9,60.5,29.92,North,350,0.0,0.0,92,0.00,,---,0.00,0.00,VWS V14.01,2013-08-14 08:35:00,
2013-08-14 03:36:00,62.9,60.5,29.92,NNW,344,0.0,0.0,92,0.00,,---,0.00,0.00,VWS V14.01,2013-08-14 08:36:00,
2013-08-14 03:40:00,62.9,60.5,29.92,North,350,0.0,0.0,92,0.00,,---,0.00,0.00,VWS V14.01,2013-08-14 08:40:00,
2013-08-14 03:41:00,62.9,60.5,29.92,North,0,0.0,0.0,92,0.00,,---,0.00,0.00,VWS V14.01,2013-08-14 08:41:00,
2013-08-14 03:45:00,62.7,60.3,29.92,North,0,0.0,0.0,92,0.00,,---,0.00,0.00,VWS V14.01,2013-08-14 08:45:00,
2013-08-14 03:46:00,62.7,60.3,29.92,North,0,0.0,0.0,92,0.00,,---,0.00,0.00,VWS V14.01,2013-08-14 08:46:00,
2013-08-14 03:50:00,62.7,60.3,29.92,NNW,346,0.0,0.0,92,0.00,,---,0.00,0.00,VWS V14.01,2013-08-14 08:50:00,
2013-08-14 03:51:00,62.6,60.2,29.92,North,0,0.0,0.0,92,0.00,,---,0.00,0.00,VWS V14.01,2013-08-14 08:51:00,
2013-08-14 03:55:00,62.6,60.2,29.92,NNW,344,0.0,0.0,92,0.00,,---,0.00,0.00,VWS V14.01,2013-08-14 08:55:00,
2013-08-14 03:56:00,62.6,60.2,29.92,North,0,0.0,0.0,92,0.00,,---,0.00,0.00,VWS V14.01,2013-08-14 08:56:00,
2013-08-14 04:00:00,62.6,60.2,29.91,NNW,344,0.0,0.0,92,0.00,,---,0.00,0.00,VWS V14.01,2013-08-14 09:00:00,
2013-08-14 04:01:00,62.4,60.0,29.91,NNW,344,0.0,0.0,92,0.00,,---,0.00,0.00,VWS V14.01,2013-08-14 09:01:00,
2013-08-14 04:05:00,62.4,60.3,29.91,North,0,0.0,0.0,93,0.00,,---,0.00,0.00,VWS V14.01,2013-08-14 09:05:00,
2013-08-14 04:06:00,62.4,60.3,29.91,North,353,0.0,0.0,93,0.00,,---,0.00,0.00,VWS V14.01,2013-08-14 09:06:00,
2013-08-14 04:10:00,62.4,60.3,29.91,North,352,0.0,0.0,93,0.00,,---,0.00,0.00,VWS V14.01,2013-08-14 09:10:00,
2013-08-14 04:11:00,62.3,60.2,29.91,North,350,0.0,0.0,93,0.00,,---,0.00,0.00,VWS V14.01,2013-08-14 09:11:00,
2013-08-14 04:15:00,62.3,60.3,29.92,SW,220,0.0,0.0,93,0.00,,---,0.00,0.00,VWS V14.01,2013-08-14 09:15:00,
2013-08-14 04:16:00,62.3,60.2,29.92,WSW,247,0.0,0.0,93,0.00,,---,0.00,0.00,VWS V14.01,2013-08-14 09:16:00,
2013-08-14 04:20:00,62.3,60.3,29.92,SW,233,0.0,0.0,93,0.00,,---,0.00,0.00,VWS V14.01,2013-08-14 09:20:00,
2013-08-14 04:21:00,62.1,60.1,29.92,WSW,241,0.0,0.0,93,0.00,,---,0.00,0.00,VWS V14.01,2013-08-14 09:21:00,
2013-08-14 04:25:00,62.0,60.0,29.92,SW,216,0.0,0.0,93,0.00,,---,0.00,0.00,VWS V14.01,2013-08-14 09:25:00,
2013-08-14 04:26:00,62.0,60.3,29.92,North,353,0.0,0.0,94,0.00,,---,0.00,0.00,VWS V14.01,2013-08-14 09:26:00,
2013-08-14 04:30:00,62.0,60.3,29.92,North,0,0.0,0.0,94,0.00,,---,0.00,0.00,VWS V14.01,2013-08-14 09:30:00,
2013-08-14 04:32:00,61.8,60.1,29.92,North,0,0.0,0.0,94,0.00,,---,0.00,0.00,VWS V14.01,2013-08-14 09:32:00,
2013-08-14 04:35:00,62.0,60.3,29.92,NNW,346,0.0,0.0,94,0.00,,---,0.00,0.00,VWS V14.01,2013-08-14 09:35:00,
2013-08-14 04:37:00,62.0,60.3,29.92,North,354,0.0,0.0,94,0.00,,---,0.00,0.00,VWS V14.01,2013-08-14 09:37:00,
2013-08-14 04:40:00,61.8,60.1,29.92,North,0,0.0,0.0,94,0.00,,---,0.00,0.00,VWS V14.01,2013-08-14 09:40:00,
2013-08-14 04:42:00,61.8,60.1,29.92,North,352,0.0,0.0,94,0.00,,---,0.00,0.00,VWS V14.01,2013-08-14 09:42:00,
2013-08-14 04:45:00,61.8,60.1,29.92,North,0,0.0,0.0,94,0.00,,---,0.00,0.00,VWS V14.01,2013-08-14 09:45:00,
2013-08-14 04:47:00,61.8,60.1,29.92,North,357,0.0,0.0,94,0.00,,---,0.00,0.00,VWS V14.01,2013-08-14 09:47:00,
2013-08-14 04:50:00,61.8,60.4,29.92,North,0,0.0,0.0,95,0.00,,---,0.00,0.00,VWS V14.01,2013-08-14 09:50:00,
2013-08-14 04:52:00,61.8,60.4,29.92,NNW,347,0.0,0.0,95,0.00,,---,0.00,0.00,VWS V14.01,2013-08-14 09:52:00,
2013-08-14 04:55:00,61.8,60.4,29.92,North,349,0.0,0.0,95,0.00,,---,0.00,0.00,VWS V14.01,2013-08-14 09:55:00,
2013-08-14 04:57:00,61.8,60.4,29.92,North,349,0.0,0.0,95,0.00,,---,0.00,0.00,VWS V14.01,2013-08-14 09:57:00,
2013-08-14 05:00:00,61.8,60.4,29.92,North,359,0.0,0.0,95,0.00,,---,0.00,0.00,VWS V14.01,2013-08-14 10:00:00,
2013-08-14 05:02:00,61.8,60.4,29.92,North,0,0.0,0.0,95,0.00,,---,0.00,0.00,VWS V14.01,2013-08-14 10:02:00,
2013-08-14 05:05:00,61.8,60.4,29.92,North,353,0.0,0.0,95,0.00,,---,0.00,0.00,VWS V14.01,2013-08-14 10:05:00,
2013-08-14 05:07:00,61.8,60.4,29.92,North,354,0.0,0.0,95,0.00,,---,0.00,0.00,VWS V14.01,2013-08-14 10:07:00,
2013-08-14 05:10:00,61.8,60.4,29.92,NNW,340,0.0,0.0,95,0.00,,---,0.00,0.00,VWS V14.01,2013-08-14 10:10:00,
2013-08-14 05:12:00,61.6,60.2,29.92,WNW,288,0.0,0.0,95,0.00,,---,0.00,0.00,VWS V14.01,2013-08-14 10:12:00,
2013-08-14 05:15:00,61.6,60.2,29.92,West,261,0.0,0.0,95,0.00,,---,0.00,0.00,VWS V14.01,2013-08-14 10:15:00,
2013-08-14 05:17:00,61.6,60.2,29.92,West,271,0.0,0.0,95,0.00,,---,0.00,0.00,VWS V14.01,2013-08-14 10:17:00,
2013-08-14 05:20:00,61.6,60.2,29.92,West,268,0.0,0.0,95,0.00,,---,0.00,0.00,VWS V14.01,2013-08-14 10:20:00,
2013-08-14 05:22:00,61.5,60.1,29.92,West,263,0.0,0.0,95,0.00,,---,0.00,0.00,VWS V14.01,2013-08-14 10:22:00,
2013-08-14 05:25:00,61.5,60.3,29.92,NW,326,0.0,0.0,96,0.00,,---,0.00,0.00,VWS V14.01,2013-08-14 10:25:00,
2013-08-14 05:27:00,61.5,60.3,29.92,West,275,0.0,0.0,96,0.00,,---,0.00,0.00,VWS V14.01,2013-08-14 10:27:00,
2013-08-14 05:30:00,61.3,60.2,29.91,West,275,0.0,0.0,96,0.00,,---,0.00,0.00,VWS V14.01,2013-08-14 10:30:00,
2013-08-14 05:32:00,61.5,60.3,29.91,WNW,285,0.0,0.0,96,0.00,,---,0.00,0.00,VWS V14.01,2013-08-14 10:32:00,
2013-08-14 05:35:00,61.3,60.2,29.91,WNW,287,0.0,0.0,96,0.00,,---,0.00,0.00,VWS V14.01,2013-08-14 10:35:00,
2013-08-14 05:37:00,61.3,60.2,29.91,West,277,0.0,0.0,96,0.00,,---,0.00,0.00,VWS V14.01,2013-08-14 10:37:00,
2013-08-14 05:40:00,61.3,60.2,29.91,NW,306,0.0,0.0,96,0.00,,---,0.00,0.00,VWS V14.01,2013-08-14 10:40:00,
2013-08-14 05:43:00,61.3,60.2,29.91,West,272,0.0,0.0,96,0.00,,---,0.00,0.00,VWS V14.01,2013-08-14 10:43:00,
2013-08-14 05:45:00,61.3,60.2,29.91,WSW,246,0.0,0.0,96,0.00,,---,0.00,0.00,VWS V14.01,2013-08-14 10:45:00,
2013-08-14 05:48:00,61.3,60.2,29.91,WSW,246,0.0,0.0,96,0.00,,---,0.00,0.00,VWS V14.01,2013-08-14 10:48:00,
2013-08-14 05:50:00,61.2,60.0,29.91,North,0,0.0,0.0,96,0.00,,---,0.00,0.00,VWS V14.01,2013-08-14 10:50:00,
2013-08-14 05:53:00,61.0,59.9,29.91,North,0,3.0,4.0,96,0.00,,---,0.00,0.00,VWS V14.01,2013-08-14 10:53:00,
2013-08-14 05:55:00,60.9,59.8,29.91,North,0,1.0,4.0,96,0.00,,---,0.00,0.00,VWS V14.01,2013-08-14 10:55:00,
2013-08-14 05:58:00,60.9,59.8,29.91,North,0,2.0,2.0,96,0.00,,---,0.00,0.00,VWS V14.01,2013-08-14 10:58:00,
2013-08-14 06:00:00,60.9,59.8,29.91,North,0,1.0,2.0,96,0.00,,---,0.00,0.00,VWS V14.01,2013-08-14 11:00:00,
2013-08-14 06:03:00,60.9,60.0,29.91,NNW,346,0.0,2.0,97,0.00,,---,0.00,0.00,VWS V14.01,2013-08-14 11:03:00,
2013-08-14 06:05:00,60.9,60.0,29.91,North,0,0.0,2.0,97,0.00,,---,0.00,0.00,VWS V14.01,2013-08-14 11:05:00,
2013-08-14 06:08:00,60.9,60.0,29.91,NNW,340,0.0,0.0,97,0.00,,---,0.00,0.00,VWS V14.01,2013-08-14 11:08:00,
2013-08-14 06:10:00,60.9,59.8,29.91,NNW,347,0.0,0.0,96,0.00,,---,0.00,0.00,VWS V14.01,2013-08-14 11:10:00,
2013-08-14 06:13:00,60.7,59.8,29.91,NNW,343,0.0,0.0,97,0.00,,---,0.00,0.00,VWS V14.01,2013-08-14 11:13:00,
2013-08-14 06:15:00,60.9,60.0,29.91,North,0,0.0,0.0,97,0.00,,---,0.00,0.00,VWS V14.01,2013-08-14 11:15:00,
2013-08-14 06:18:00,60.9,60.0,29.91,NW,312,0.0,0.0,97,0.00,,---,0.00,0.00,VWS V14.01,2013-08-14 11:18:00,
2013-08-14 06:20:00,60.9,60.0,29.91,WNW,299,0.0,0.0,97,0.00,,---,0.00,0.00,VWS V14.01,2013-08-14 11:20:00,
2013-08-14 06:23:00,60.9,60.0,29.91,NNW,343,0.0,0.0,97,0.00,,---,0.00,0.00,VWS V14.01,2013-08-14 11:23:00,
2013-08-14 06:25:00,60.9,60.0,29.91,SSW,202,0.0,0.0,97,0.00,,---,0.00,0.00,VWS V14.01,2013-08-14 11:25:00,
2013-08-14 06:28:00,60.9,60.0,29.91,WNW,282,0.0,0.0,97,0.00,,---,0.00,0.00,VWS V14.01,2013-08-14 11:28:00,
2013-08-14 06:30:00,60.9,60.0,29.91,North,353,0.0,0.0,97,0.00,,---,0.00,0.00,VWS V14.01,2013-08-14 11:30:00,
2013-08-14 06:33:00,60.9,60.0,29.91,SE,138,0.0,0.0,97,0.00,,---,0.00,0.00,VWS V14.01,2013-08-14 11:33:00,
2013-08-14 06:35:00,60.9,60.0,29.91,NNW,346,0.0,0.0,97,0.00,,---,0.00,0.00,VWS V14.01,2013-08-14 11:35:00,
2013-08-14 06:38:00,61.0,60.2,29.91,East,86,0.0,0.0,97,0.00,,---,0.00,0.00,VWS V14.01,2013-08-14 11:38:00,
2013-08-14 06:40:00,61.2,60.6,29.91,East,89,0.0,0.0,98,0.00,,---,0.00,0.00,VWS V14.01,2013-08-14 11:40:00,
2013-08-14 06:44:00,61.2,60.6,29.91,East,89,0.0,0.0,98,0.00,,---,0.00,0.00,VWS V14.01,2013-08-14 11:44:00,
2013-08-14 06:45:00,61.2,60.3,29.91,SW,224,0.0,0.0,97,0.00,,---,0.00,0.00,VWS V14.01,2013-08-14 11:45:00,
2013-08-14 06:49:00,61.2,60.6,29.91,SW,234,0.0,0.0,98,0.00,,---,0.00,0.00,VWS V14.01,2013-08-14 11:49:00,
2013-08-14 06:50:00,61.3,60.7,29.91,North,0,0.0,0.0,98,0.00,,---,0.00,0.00,VWS V14.01,2013-08-14 11:50:00,
2013-08-14 06:54:00,61.2,60.3,29.91,North,0,0.0,0.0,97,0.00,,---,0.00,5.00,VWS V14.01,2013-08-14 11:54:00,
2013-08-14 06:55:00,61.2,60.3,29.91,South,171,0.0,0.0,97,0.00,,---,0.00,5.00,VWS V14.01,2013-08-14 11:55:00,
2013-08-14 06:59:00,61.2,60.6,29.91,WSW,240,0.0,0.0,98,0.00,,---,0.00,9.00,VWS V14.01,2013-08-14 11:59:00,
2013-08-14 07:00:00,61.2,60.6,29.92,NNW,347,0.0,0.0,98,0.00,,---,0.00,12.00,VWS V14.01,2013-08-14 12:00:00,
2013-08-14 07:04:00,61.2,60.6,29.92,NNW,343,0.0,0.0,98,0.00,,---,0.00,18.00,VWS V14.01,2013-08-14 12:04:00,
2013-08-14 07:05:00,61.2,60.6,29.92,North,0,0.0,0.0,98,0.00,,---,0.00,18.00,VWS V14.01,2013-08-14 12:05:00,
2013-08-14 07:09:00,61.2,60.6,29.92,North,0,0.0,0.0,98,0.00,,---,0.00,19.00,VWS V14.01,2013-08-14 12:09:00,
2013-08-14 07:10:00,61.2,60.3,29.92,North,350,0.0,0.0,97,0.00,,---,0.00,19.00,VWS V14.01,2013-08-14 12:10:00,
2013-08-14 07:14:00,61.3,60.7,29.92,North,0,0.0,0.0,98,0.00,,---,0.00,19.00,VWS V14.01,2013-08-14 12:14:00,
2013-08-14 07:15:00,61.3,60.4,29.92,North,350,0.0,0.0,97,0.00,,---,0.00,19.00,VWS V14.01,2013-08-14 12:15:00,
2013-08-14 07:20:00,61.3,60.7,29.92,North,0,0.0,0.0,98,0.00,,---,0.00,32.00,VWS V14.01,2013-08-14 12:20:00,
2013-08-14 07:25:00,61.5,60.6,29.92,North,0,0.0,0.0,97,0.00,,---,0.00,44.00,VWS V14.01,2013-08-14 12:25:00,
2013-08-14 07:30:00,61.6,60.7,29.92,NW,325,0.0,0.0,97,0.00,,---,0.00,74.00,VWS V14.01,2013-08-14 12:30:00,
2013-08-14 07:35:00,61.8,60.9,29.92,North,0,0.0,0.0,97,0.00,,---,0.00,90.00,VWS V14.01,2013-08-14 12:35:00,
2013-08-14 07:40:00,62.0,61.1,29.92,North,0,0.0,0.0,97,0.00,,---,0.00,114.00,VWS V14.01,2013-08-14 12:40:00,
2013-08-14 07:45:00,62.3,61.4,29.92,NNW,347,0.0,0.0,97,0.00,,---,0.00,130.00,VWS V14.01,2013-08-14 12:45:00,
2013-08-14 07:46:00,62.3,61.4,29.92,NNW,347,0.0,0.0,97,0.00,,---,0.00,130.00,VWS V14.01,2013-08-14 12:46:00,
2013-08-14 07:50:00,62.7,61.5,29.92,North,349,0.0,0.0,96,0.00,,---,0.00,153.00,VWS V14.01,2013-08-14 12:50:00,
2013-08-14 07:51:00,62.7,61.5,29.92,North,356,0.0,0.0,96,0.00,,---,0.00,157.00,VWS V14.01,2013-08-14 12:51:00,
2013-08-14 07:55:00,63.1,61.9,29.92,North,357,0.0,0.0,96,0.00,,---,0.00,174.00,VWS V14.01,2013-08-14 12:55:00,
2013-08-14 07:56:00,63.1,61.9,29.92,North,356,0.0,0.0,96,0.00,,---,0.00,174.00,VWS V14.01,2013-08-14 12:56:00,
2013-08-14 08:00:00,63.4,62.0,29.93,NNW,343,0.0,0.0,95,0.00,,---,0.00,143.00,VWS V14.01,2013-08-14 13:00:00,
2013-08-14 08:01:00,63.4,62.0,29.93,NNW,347,0.0,0.0,95,0.00,,---,0.00,137.00,VWS V14.01,2013-08-14 13:01:00,
2013-08-14 08:05:00,63.5,61.8,29.93,NW,322,0.0,0.0,94,0.00,,---,0.00,153.00,VWS V14.01,2013-08-14 13:05:00,
2013-08-14 08:06:00,63.7,62.0,29.93,SW,216,0.0,0.0,94,0.00,,---,0.00,171.00,VWS V14.01,2013-08-14 13:06:00,
2013-08-14 08:10:00,63.9,61.8,29.93,WSW,241,0.0,0.0,93,0.00,,---,0.00,139.00,VWS V14.01,2013-08-14 13:10:00,
2013-08-14 08:11:00,63.9,61.8,29.93,SW,233,0.0,0.0,93,0.00,,---,0.00,172.00,VWS V14.01,2013-08-14 13:11:00,
2013-08-14 08:15:00,64.2,61.8,29.94,East,88,0.0,3.0,92,0.00,,---,0.00,199.00,VWS V14.01,2013-08-14 13:15:00,
2013-08-14 08:16:00,64.2,61.8,29.94,East,88,0.0,0.0,92,0.00,,---,0.00,199.00,VWS V14.01,2013-08-14 13:16:00,
2013-08-14 08:20:00,64.3,61.6,29.94,WSW,250,3.0,5.0,91,0.00,,---,0.00,197.00,VWS V14.01,2013-08-14 13:20:00,
2013-08-14 08:21:00,64.3,61.6,29.94,WSW,240,1.0,4.0,91,0.00,,---,0.00,179.00,VWS V14.01,2013-08-14 13:21:00,
2013-08-14 08:25:00,64.5,61.5,29.94,South,184,3.0,5.0,90,0.00,,---,0.00,209.00,VWS V14.01,2013-08-14 13:25:00,
2013-08-14 08:26:00,64.7,61.7,29.94,WNW,295,1.0,3.0,90,0.00,,---,0.00,220.00,VWS V14.01,2013-08-14 13:26:00,
2013-08-14 08:30:00,65.0,61.7,29.94,NNW,343,0.0,5.0,89,0.00,,---,0.00,234.00,VWS V14.01,2013-08-14 13:30:00,
2013-08-14 08:31:00,65.2,61.9,29.94,NW,318,0.0,0.0,89,0.00,,---,0.00,238.00,VWS V14.01,2013-08-14 13:31:00,
2013-08-14 08:35:00,65.3,61.7,29.94,West,260,0.0,0.0,88,0.00,,---,0.00,250.00,VWS V14.01,2013-08-14 13:35:00,
2013-08-14 08:36:00,65.3,61.7,29.94,SSE,161,0.0,0.0,88,0.00,,---,0.00,255.00,VWS V14.01,2013-08-14 13:36:00,
2013-08-14 08:40:00,65.6,62.0,29.94,WNW,285,0.0,0.0,88,0.00,,---,0.00,278.00,VWS V14.01,2013-08-14 13:40:00,
2013-08-14 08:41:00,65.8,62.2,29.94,WSW,257,0.0,0.0,88,0.00,,---,0.00,283.00,VWS V14.01,2013-08-14 13:41:00,
2013-08-14 08:45:00,66.1,62.1,29.95,North,359,0.0,0.0,87,0.00,,---,0.00,294.00,VWS V14.01,2013-08-14 13:45:00,
2013-08-14 08:47:00,66.1,61.8,29.95,SSE,154,0.0,2.0,86,0.00,,---,0.00,299.00,VWS V14.01,2013-08-14 13:47:00,
2013-08-14 08:50:00,66.4,61.8,29.95,SSE,158,1.0,3.0,85,0.00,,---,0.00,311.00,VWS V14.01,2013-08-14 13:50:00,
2013-08-14 08:52:00,66.6,61.6,29.95,SW,229,0.0,3.0,84,0.00,,---,0.00,315.00,VWS V14.01,2013-08-14 13:52:00,
2013-08-14 08:55:00,66.8,61.5,29.95,ESE,116,0.0,3.0,83,0.00,,---,0.00,326.00,VWS V14.01,2013-08-14 13:55:00,
2013-08-14 08:57:00,66.9,61.6,29.95,NW,325,0.0,0.0,83,0.00,,---,0.00,333.00,VWS V14.01,2013-08-14 13:57:00,
2013-08-14 09:00:00,67.1,61.4,29.95,North,353,0.0,0.0,82,0.00,,---,0.00,341.00,VWS V14.01,2013-08-14 14:00:00,
2013-08-14 09:02:00,67.3,61.6,29.95,NW,308,0.0,0.0,82,0.00,,---,0.00,347.00,VWS V14.01,2013-08-14 14:02:00,
2013-08-14 09:05:00,67.4,61.4,29.95,NNW,343,0.0,3.0,81,0.00,,---,0.00,359.00,VWS V14.01,2013-08-14 14:05:00,
2013-08-14 09:07:00,67.6,61.2,29.95,WNW,291,1.0,2.0,80,0.00,,---,0.00,352.00,VWS V14.01,2013-08-14 14:07:00,
2013-08-14 09:10:00,67.8,61.4,29.95,North,352,1.0,6.0,80,0.00,,---,0.00,362.00,VWS V14.01,2013-08-14 14:10:00,
2013-08-14 09:12:00,67.9,61.5,29.95,SSE,158,0.0,2.0,80,0.00,,---,0.00,371.00,VWS V14.01,2013-08-14 14:12:00,
2013-08-14 09:15:00,68.3,61.9,29.95,WNW,298,0.0,2.0,80,0.00,,---,0.00,377.00,VWS V14.01,2013-08-14 14:15:00,
2013-08-14 09:17:00,68.4,62.0,29.95,SE,138,0.0,0.0,80,0.00,,---,0.00,387.00,VWS V14.01,2013-08-14 14:17:00,
2013-08-14 09:20:00,68.6,61.8,29.95,SSE,160,3.0,6.0,79,0.00,,---,0.00,396.00,VWS V14.01,2013-08-14 14:20:00,
2013-08-14 09:22:00,68.6,61.5,29.95,SSW,198,2.0,4.0,78,0.00,,---,0.00,384.00,VWS V14.01,2013-08-14 14:22:00,
2013-08-14 09:25:00,68.6,61.1,29.95,North,357,3.0,4.0,77,0.00,,---,0.00,408.00,VWS V14.01,2013-08-14 14:25:00,
2013-08-14 09:27:00,68.8,61.3,29.95,North,352,2.0,3.0,77,0.00,,---,0.00,415.00,VWS V14.01,2013-08-14 14:27:00,
2013-08-14 09:30:00,69.1,61.6,29.95,NW,313,3.0,4.0,77,0.00,,---,0.00,422.00,VWS V14.01,2013-08-14 14:30:00,
2013-08-14 09:32:00,69.3,61.8,29.95,North,359,0.0,3.0,77,0.00,,---,0.00,431.00,VWS V14.01,2013-08-14 14:32:00,
2013-08-14 09:35:00,69.4,61.9,29.95,NW,325,1.0,3.0,77,0.00,,---,0.00,440.00,VWS V14.01,2013-08-14 14:35:00,
2013-08-14 09:38:00,69.8,62.3,29.95,North,0,3.0,3.0,77,0.00,,---,0.00,449.00,VWS V14.01,2013-08-14 14:38:00,
2013-08-14 09:40:00,69.9,62.4,29.95,West,264,1.0,6.0,77,0.00,,---,0.00,466.00,VWS V14.01,2013-08-14 14:40:00,
2013-08-14 09:43:00,70.1,62.6,29.95,SSW,208,1.0,3.0,77,0.00,,---,0.00,480.00,VWS V14.01,2013-08-14 14:43:00,
2013-08-14 09:45:00,70.3,62.4,29.95,NNW,336,5.0,7.0,76,0.00,,---,0.00,494.00,VWS V14.01,2013-08-14 14:45:00,
2013-08-14 09:48:00,70.4,62.5,29.95,North,359,4.0,7.0,76,0.00,,---,0.00,510.00,VWS V14.01,2013-08-14 14:48:00,
2013-08-14 09:50:00,70.6,62.3,29.95,North,353,5.0,7.0,75,0.00,,---,0.00,486.00,VWS V14.01,2013-08-14 14:50:00,
2013-08-14 09:53:00,70.8,62.5,29.95,North,354,2.0,5.0,75,0.00,,---,0.00,491.00,VWS V14.01,2013-08-14 14:53:00,
2013-08-14 09:55:00,70.9,62.2,29.95,West,280,3.0,5.0,74,0.00,,---,0.00,561.00,VWS V14.01,2013-08-14 14:55:00,
2013-08-14 09:58:00,71.1,62.4,29.95,North,352,4.0,7.0,74,0.00,,---,0.00,568.00,VWS V14.01,2013-08-14 14:58:00,
2013-08-14 10:00:00,71.5,62.0,29.94,NNW,346,2.0,7.0,72,0.00,,---,0.00,552.00,VWS V14.01,2013-08-14 15:00:00,
2013-08-14 10:03:00,71.8,62.3,29.94,North,0,1.0,4.0,72,0.00,,---,0.00,556.00,VWS V14.01,2013-08-14 15:03:00,
2013-08-14 10:05:00,72.1,62.6,29.94,NNW,340,5.0,5.0,72,0.00,,---,0.00,556.00,VWS V14.01,2013-08-14 15:05:00,
2013-08-14 10:08:00,72.1,61.4,29.94,North,0,3.0,7.0,69,0.00,,---,0.00,473.00,VWS V14.01,2013-08-14 15:08:00,
2013-08-14 10:10:00,72.1,61.4,29.94,WSW,254,5.0,7.0,69,0.00,,---,0.00,523.00,VWS V14.01,2013-08-14 15:10:00,
2013-08-14 10:13:00,72.3,62.4,29.94,WSW,248,2.0,7.0,71,0.00,,---,0.00,447.00,VWS V14.01,2013-08-14 15:13:00,
2013-08-14 10:15:00,72.3,61.6,29.95,WNW,295,5.0,9.0,69,0.00,,---,0.00,447.00,VWS V14.01,2013-08-14 15:15:00,
2013-08-14 10:18:00,72.5,60.9,29.95,North,352,3.0,8.0,67,0.00,,---,0.00,545.00,VWS V14.01,2013-08-14 15:18:00,
2013-08-14 10:20:00,72.5,60.9,29.95,SE,143,10.0,10.0,67,0.00,,---,0.00,556.00,VWS V14.01,2013-08-14 15:20:00,
2013-08-14 10:23:00,72.8,62.0,29.95,North,0,3.0,11.0,69,0.00,,---,0.00,579.00,VWS V14.01,2013-08-14 15:23:00,
2013-08-14 10:25:00,72.7,61.5,29.95,North,0,6.0,11.0,68,0.00,,---,0.00,552.00,VWS V14.01,2013-08-14 15:25:00,
2013-08-14 10:28:00,72.8,61.6,29.95,North,353,6.0,12.0,68,0.00,,---,0.00,545.00,VWS V14.01,2013-08-14 15:28:00,
2013-08-14 10:30:00,73.0,61.8,29.94,NW,311,6.0,12.0,68,0.00,,---,0.00,486.00,VWS V14.01,2013-08-14 15:30:00,
2013-08-14 10:34:00,73.0,61.4,29.94,SE,128,10.0,14.0,67,0.00,,---,0.00,521.00,VWS V14.01,2013-08-14 15:34:00,
2013-08-14 10:35:00,73.0,61.4,29.94,North,350,7.0,14.0,67,0.00,,---,0.00,521.00,VWS V14.01,2013-08-14 15:35:00,
2013-08-14 10:39:00,73.2,61.6,29.94,SSE,167,8.0,8.0,67,0.00,,---,0.00,565.00,VWS V14.01,2013-08-14 15:39:00,
2013-08-14 10:40:00,73.2,61.6,29.94,North,0,11.0,12.0,67,0.00,,---,0.00,565.00,VWS V14.01,2013-08-14 15:40:00,
2013-08-14 10:44:00,73.3,62.1,29.94,North,0,3.0,12.0,68,0.00,,---,0.00,604.00,VWS V14.01,2013-08-14 15:44:00,
2013-08-14 10:45:00,73.3,62.1,29.94,NNW,343,10.0,12.0,68,0.00,,---,0.00,604.00,VWS V14.01,2013-08-14 15:45:00,
2013-08-14 10:49:00,73.3,61.7,29.94,North,352,3.0,11.0,67,0.00,,---,0.00,473.00,VWS V14.01,2013-08-14 15:49:00,
2013-08-14 10:50:00,73.5,61.9,29.94,North,352,6.0,11.0,67,0.00,,---,0.00,452.00,VWS V14.01,2013-08-14 15:50:00,
2013-08-14 10:54:00,73.7,62.1,29.94,West,265,3.0,8.0,67,0.00,,---,0.00,614.00,VWS V14.01,2013-08-14 15:54:00,
2013-08-14 10:55:00,73.7,62.5,29.94,North,353,6.0,8.0,68,0.00,,---,0.00,614.00,VWS V14.01,2013-08-14 15:55:00,
2013-08-14 10:59:00,73.9,61.8,29.94,NNW,329,7.0,12.0,66,0.00,,---,0.00,537.00,VWS V14.01,2013-08-14 15:59:00,
2013-08-14 11:00:00,73.9,61.8,29.95,NNW,342,8.0,12.0,66,0.00,,---,0.00,544.00,VWS V14.01,2013-08-14 16:00:00,
2013-08-14 11:04:00,73.9,61.8,29.95,SSE,161,3.0,12.0,66,0.00,,---,0.00,537.00,VWS V14.01,2013-08-14 16:04:00,
2013-08-14 11:05:00,74.0,61.9,29.95,North,0,3.0,12.0,66,0.00,,---,0.00,537.00,VWS V14.01,2013-08-14 16:05:00,
2013-08-14 11:09:00,74.2,61.7,29.95,North,354,5.0,11.0,65,0.00,,---,0.00,531.00,VWS V14.01,2013-08-14 16:09:00,
2013-08-14 11:10:00,74.2,61.2,29.95,North,0,5.0,11.0,64,0.00,,---,0.00,533.00,VWS V14.01,2013-08-14 16:10:00,
2013-08-14 11:14:00,74.0,60.6,29.94,SE,133,7.0,14.0,63,0.00,,---,0.00,693.00,VWS V14.01,2013-08-14 16:14:00,
2013-08-14 11:15:00,74.0,60.2,29.94,North,0,5.0,14.0,62,0.00,,---,0.00,693.00,VWS V14.01,2013-08-14 16:15:00,
2013-08-14 11:20:00,74.4,61.0,29.94,North,0,7.0,12.0,63,0.00,,---,0.00,595.00,VWS V14.01,2013-08-14 16:20:00,
2013-08-14 11:25:00,74.6,60.3,29.94,North,0,3.0,14.0,61,0.00,,---,0.00,649.00,VWS V14.01,2013-08-14 16:25:00,
2013-08-14 11:30:00,74.7,60.8,29.94,West,280,9.0,13.0,62,0.00,,---,0.00,714.00,VWS V14.01,2013-08-14 16:30:00,
2013-08-14 11:35:00,74.9,59.1,29.94,South,191,7.0,13.0,58,0.00,,---,0.00,813.00,VWS V14.01,2013-08-14 16:35:00,
2013-08-14 11:40:00,75.4,61.0,29.94,North,350,5.0,17.0,61,0.00,,---,0.00,794.00,VWS V14.01,2013-08-14 16:40:00,
2013-08-14 11:45:00,75.6,60.8,29.94,North,0,4.0,11.0,60,0.00,,---,0.00,688.00,VWS V14.01,2013-08-14 16:45:00,
2013-08-14 11:50:00,75.8,60.5,29.94,WNW,298,5.0,12.0,59,0.00,,---,0.00,526.00,VWS V14.01,2013-08-14 16:50:00,
2013-08-14 11:55:00,75.6,59.8,29.94,SW,227,6.0,14.0,58,0.00,,---,0.00,531.00,VWS V14.01,2013-08-14 16:55:00,
2013-08-14 12:00:00,75.4,60.1,29.94,North,0,8.0,11.0,59,0.00,,---,0.00,542.00,VWS V14.01,2013-08-14 17:00:00,
2013-08-14 12:05:00,75.8,60.5,29.94,SW,233,8.0,11.0,59,0.00,,---,0.00,505.00,VWS V14.01,2013-08-14 17:05:00,
2013-08-14 12:10:00,75.6,60.3,29.94,ESE,121,3.0,3.0,59,0.00,,---,0.00,556.00,VWS V14.01,2013-08-14 17:10:00,
2013-08-14 12:15:00,75.8,60.5,29.94,North,0,13.0,13.0,59,0.00,,---,0.00,538.00,VWS V14.01,2013-08-14 17:15:00,
2013-08-14 12:20:00,75.8,60.5,29.94,North,352,9.0,9.0,59,0.00,,---,0.00,570.00,VWS V14.01,2013-08-14 17:20:00,
2013-08-14 12:25:00,75.8,60.0,29.94,North,353,7.0,7.0,58,0.00,,---,0.00,519.00,VWS V14.01,2013-08-14 17:25:00,
2013-08-14 12:30:00,76.0,60.2,29.93,North,354,3.0,13.0,58,0.00,,---,0.00,486.00,VWS V14.01,2013-08-14 17:30:00,
2013-08-14 12:31:00,76.0,60.2,29.93,North,0,8.0,8.0,58,0.00,,---,0.00,450.00,VWS V14.01,2013-08-14 17:31:00,
2013-08-14 12:35:00,76.3,59.0,29.93,North,0,2.0,11.0,55,0.00,,---,0.00,512.00,VWS V14.01,2013-08-14 17:35:00,
2013-08-14 12:36:00,76.3,59.0,29.93,North,0,8.0,8.0,55,0.00,,---,0.00,533.00,VWS V14.01,2013-08-14 17:36:00,
2013-08-14 12:40:00,76.5,60.2,29.93,North,0,5.0,11.0,57,0.00,,---,0.00,530.00,VWS V14.01,2013-08-14 17:40:00,
2013-08-14 12:41:00,76.5,60.2,29.93,North,0,10.0,10.0,57,0.00,,---,0.00,530.00,VWS V14.01,2013-08-14 17:41:00,
2013-08-14 12:45:00,76.7,60.8,29.93,North,0,7.0,10.0,58,0.00,,---,0.00,586.00,VWS V14.01,2013-08-14 17:45:00,
2013-08-14 12:46:00,76.7,60.8,29.93,North,0,2.0,7.0,58,0.00,,---,0.00,584.00,VWS V14.01,2013-08-14 17:46:00,
2013-08-14 12:50:00,76.7,59.3,29.93,WSW,244,6.0,11.0,55,0.00,,---,0.00,538.00,VWS V14.01,2013-08-14 17:50:00,
2013-08-14 12:51:00,76.7,59.3,29.93,North,353,5.0,6.0,55,0.00,,---,0.00,538.00,VWS V14.01,2013-08-14 17:51:00,
2013-08-14 12:55:00,76.7,59.8,29.93,North,0,5.0,10.0,56,0.00,,---,0.00,618.00,VWS V14.01,2013-08-14 17:55:00,
2013-08-14 12:56:00,76.7,59.8,29.93,NNW,342,9.0,9.0,56,0.00,,---,0.00,691.00,VWS V14.01,2013-08-14 17:56:00,
2013-08-14 13:00:00,76.8,59.9,29.93,North,0,6.0,11.0,56,0.00,,---,0.00,755.00,VWS V14.01,2013-08-14 18:00:00,
2013-08-14 13:01:00,76.7,60.3,29.93,North,0,1.0,7.0,57,0.00,,---,0.00,873.00,VWS V14.01,2013-08-14 18:01:00,
2013-08-14 13:05:00,76.8,59.9,29.93,WNW,295,6.0,10.0,56,0.00,,---,0.00,741.00,VWS V14.01,2013-08-14 18:05:00,
2013-08-14 13:06:00,77.0,60.1,29.93,North,350,1.0,6.0,56,0.00,,---,0.00,456.00,VWS V14.01,2013-08-14 18:06:00,
2013-08-14 13:10:00,77.2,60.3,29.93,NNW,347,5.0,12.0,56,0.00,,---,0.00,384.00,VWS V14.01,2013-08-14 18:10:00,
2013-08-14 13:12:00,77.2,60.3,29.93,North,0,5.0,7.0,56,0.00,,---,0.00,403.00,VWS V14.01,2013-08-14 18:12:00,
2013-08-14 13:15:00,77.4,61.5,29.92,North,349,4.0,8.0,58,0.00,,---,0.00,419.00,VWS V14.01,2013-08-14 18:15:00,
2013-08-14 13:17:00,77.6,61.2,29.92,North,0,3.0,5.0,57,0.00,,---,0.00,619.00,VWS V14.01,2013-08-14 18:17:00,
2013-08-14 13:20:00,77.7,61.3,29.92,West,280,1.0,7.0,57,0.00,,---,0.00,528.00,VWS V14.01,2013-08-14 18:20:00,
2013-08-14 13:22:00,77.9,61.0,29.92,North,357,4.0,6.0,56,0.00,,---,0.00,507.00,VWS V14.01,2013-08-14 18:22:00,
2013-08-14 13:25:00,77.7,60.3,29.92,North,0,5.0,11.0,55,0.00,,---,0.00,484.00,VWS V14.01,2013-08-14 18:25:00,
2013-08-14 13:27:00,77.6,59.1,29.92,NNW,347,5.0,7.0,53,0.00,,---,0.00,415.00,VWS V14.01,2013-08-14 18:27:00,
2013-08-14 13:30:00,77.6,60.2,29.92,North,0,6.0,8.0,55,0.00,,---,0.00,385.00,VWS V14.01,2013-08-14 18:30:00,
2013-08-14 13:32:00,77.6,60.2,29.92,NW,316,3.0,6.0,55,0.00,,---,0.00,370.00,VWS V14.01,2013-08-14 18:32:00,
2013-08-14 13:35:00,77.7,60.3,29.92,SE,138,5.0,6.0,55,0.00,,---,0.00,378.00,VWS V14.01,2013-08-14 18:35:00,
2013-08-14 13:38:00,77.7,60.3,29.92,WSW,247,5.0,7.0,55,0.00,,---,0.00,382.00,VWS V14.01,2013-08-14 18:38:00,
2013-08-14 13:40:00,77.9,61.5,29.92,North,349,5.0,7.0,57,0.00,,---,0.00,385.00,VWS V14.01,2013-08-14 18:40:00,
2013-08-14 13:43:00,78.1,61.6,29.92,South,174,0.0,6.0,57,0.00,,---,0.00,385.00,VWS V14.01,2013-08-14 18:43:00,
2013-08-14 13:45:00,78.1,60.6,29.91,SE,140,4.0,6.0,55,0.00,,---,0.00,357.00,VWS V14.01,2013-08-14 18:45:00,
2013-08-14 13:48:00,78.1,61.1,29.91,North,350,4.0,8.0,56,0.00,,---,0.00,403.00,VWS V14.01,2013-08-14 18:48:00,
2013-08-14 13:50:00,77.9,60.5,29.91,North,0,3.0,10.0,55,0.00,,---,0.00,435.00,VWS V14.01,2013-08-14 18:50:00,
2013-08-14 13:53:00,77.9,61.0,29.91,NNW,346,5.0,7.0,56,0.00,,---,0.00,431.00,VWS V14.01,2013-08-14 18:53:00,
2013-08-14 13:55:00,78.1,61.6,29.91,NNW,330,6.0,7.0,57,0.00,,---,0.00,359.00,VWS V14.01,2013-08-14 18:55:00,
2013-08-14 13:59:00,77.9,61.0,29.91,North,353,3.0,10.0,56,0.00,,---,0.00,424.00,VWS V14.01,2013-08-14 18:59:00,
2013-08-14 14:00:00,77.9,60.5,29.91,North,0,5.0,10.0,55,0.00,,---,0.00,406.00,VWS V14.01,2013-08-14 19:00:00,
2013-08-14 14:04:00,77.9,59.4,29.91,North,0,7.0,8.0,53,0.00,,---,0.00,384.00,VWS V14.01,2013-08-14 19:04:00,
2013-08-14 14:05:00,77.9,59.9,29.91,NW,316,3.0,8.0,54,0.00,,---,0.00,394.00,VWS V14.01,2013-08-14 19:05:00,
2013-08-14 14:10:00,78.1,60.6,29.91,North,356,2.0,7.0,55,0.00,,---,0.00,725.00,VWS V14.01,2013-08-14 19:10:00,
2013-08-14 14:12:00,78.3,60.8,29.91,SW,217,1.0,6.0,55,0.00,,---,0.00,725.00,VWS V14.01,2013-08-14 19:12:00,
2013-08-14 14:15:00,78.5,60.5,29.91,South,179,6.0,7.0,54,0.00,,---,0.00,725.00,VWS V14.01,2013-08-14 19:15:00,
2013-08-14 14:17:00,78.3,60.3,29.91,NNW,347,9.0,9.0,54,0.00,,---,0.00,317.00,VWS V14.01,2013-08-14 19:17:00,
2013-08-14 14:20:00,78.1,59.6,29.91,North,0,7.0,11.0,53,0.00,,---,0.00,317.00,VWS V14.01,2013-08-14 19:20:00,
2013-08-14 14:22:00,77.9,58.9,29.91,North,350,5.0,7.0,52,0.00,,---,0.00,317.00,VWS V14.01,2013-08-14 19:22:00,
2013-08-14 14:25:00,78.1,60.6,29.91,North,0,2.0,8.0,55,0.00,,---,0.00,834.00,VWS V14.01,2013-08-14 19:25:00,
2013-08-14 14:27:00,78.3,60.8,29.91,North,350,3.0,6.0,55,0.00,,---,0.00,841.00,VWS V14.01,2013-08-14 19:27:00,
2013-08-14 14:30:00,78.6,60.1,29.90,North,349,5.0,7.0,53,0.00,,---,0.00,774.00,VWS V14.01,2013-08-14 19:30:00,
2013-08-14 14:32:00,78.8,61.3,29.90,North,0,4.0,7.0,55,0.00,,---,0.00,922.00,VWS V14.01,2013-08-14 19:32:00,
2013-08-14 14:35:00,79.0,61.0,29.90,North,353,6.0,12.0,54,0.00,,---,0.00,892.00,VWS V14.01,2013-08-14 19:35:00,
2013-08-14 14:37:00,79.0,59.9,29.90,North,357,5.0,11.0,52,0.00,,---,0.00,874.00,VWS V14.01,2013-08-14 19:37:00,
2013-08-14 14:40:00,79.0,61.0,29.90,NNW,344,5.0,11.0,54,0.00,,---,0.00,734.00,VWS V14.01,2013-08-14 19:40:00,
2013-08-14 14:43:00,79.0,59.9,29.90,North,359,9.0,13.0,52,0.00,,---,0.00,582.00,VWS V14.01,2013-08-14 19:43:00,
2013-08-14 14:45:00,78.8,59.7,29.89,North,353,6.0,13.0,52,0.00,,---,0.00,690.00,VWS V14.01,2013-08-14 19:45:00,
2013-08-14 14:48:00,79.0,60.4,29.89,North,0,11.0,12.0,53,0.00,,---,0.00,704.00,VWS V14.01,2013-08-14 19:48:00,
2013-08-14 14:50:00,79.2,61.1,29.89,North,359,12.0,12.0,54,0.00,,---,0.00,704.00,VWS V14.01,2013-08-14 19:50:00,
2013-08-14 14:53:00,79.0,60.4,29.89,North,0,5.0,12.0,53,0.00,,---,0.00,855.00,VWS V14.01,2013-08-14 19:53:00,
2013-08-14 14:55:00,79.2,60.1,29.89,NNW,347,0.0,12.0,52,0.00,,---,0.00,760.00,VWS V14.01,2013-08-14 19:55:00,
2013-08-14 14:58:00,79.6,59.9,29.89,North,350,2.0,10.0,51,0.00,,---,0.00,874.00,VWS V14.01,2013-08-14 19:58:00,
2013-08-14 15:00:00,79.6,59.3,29.89,NNW,344,5.0,12.0,50,0.00,,---,0.00,1033.00,VWS V14.01,2013-08-14 20:00:00,
2013-08-14 15:03:00,79.6,59.3,29.89,NNW,347,8.0,12.0,50,0.00,,---,0.00,966.00,VWS V14.01,2013-08-14 20:03:00,
2013-08-14 15:05:00,79.6,59.3,29.89,North,357,4.0,12.0,50,0.00,,---,0.00,408.00,VWS V14.01,2013-08-14 20:05:00,
2013-08-14 15:08:00,79.6,58.2,29.89,North,353,6.0,10.0,48,0.00,,---,0.00,371.00,VWS V14.01,2013-08-14 20:08:00,
2013-08-14 15:10:00,79.6,59.3,29.89,NNW,337,6.0,11.0,50,0.00,,---,0.00,361.00,VWS V14.01,2013-08-14 20:10:00,
2013-08-14 15:14:00,79.4,60.3,29.89,WNW,296,6.0,8.0,52,0.00,,---,0.00,370.00,VWS V14.01,2013-08-14 20:14:00,
2013-08-14 15:15:00,79.4,58.6,29.88,North,352,2.0,8.0,49,0.00,,---,0.00,377.00,VWS V14.01,2013-08-14 20:15:00,
2013-08-14 15:19:00,79.0,58.8,29.88,North,0,7.0,8.0,50,0.00,,---,0.00,417.00,VWS V14.01,2013-08-14 20:19:00,
2013-08-14 15:20:00,78.8,58.0,29.88,WNW,292,5.0,10.0,49,0.00,,---,0.00,382.00,VWS V14.01,2013-08-14 20:20:00,
2013-08-14 15:24:00,78.8,58.6,29.88,WNW,288,1.0,5.0,50,0.00,,---,0.00,415.00,VWS V14.01,2013-08-14 20:24:00,
2013-08-14 15:25:00,79.0,59.9,29.88,North,356,8.0,8.0,52,0.00,,---,0.00,415.00,VWS V14.01,2013-08-14 20:25:00,
2013-08-14 15:29:00,79.2,58.4,29.88,North,354,7.0,10.0,49,0.00,,---,0.00,415.00,VWS V14.01,2013-08-14 20:29:00,
2013-08-14 15:30:00,79.4,59.2,29.87,SE,137,0.0,10.0,50,0.00,,---,0.00,415.00,VWS V14.01,2013-08-14 20:30:00,
2013-08-14 15:34:00,79.8,56.6,29.87,North,0,3.0,11.0,45,0.00,,---,0.00,683.00,VWS V14.01,2013-08-14 20:34:00,
2013-08-14 15:35:00,79.8,57.2,29.87,North,0,7.0,11.0,46,0.00,,---,0.00,512.00,VWS V14.01,2013-08-14 20:35:00,
2013-08-14 15:39:00,79.9,59.0,29.87,North,0,7.0,10.0,49,0.00,,---,0.00,897.00,VWS V14.01,2013-08-14 20:39:00,
2013-08-14 15:40:00,79.9,59.0,29.87,NNW,343,5.0,10.0,49,0.00,,---,0.00,897.00,VWS V14.01,2013-08-14 20:40:00,
2013-08-14 15:44:00,79.9,59.0,29.87,West,280,5.0,10.0,49,0.00,,---,0.00,618.00,VWS V14.01,2013-08-14 20:44:00,
2013-08-14 15:45:00,79.9,59.0,29.87,South,179,5.0,10.0,49,0.00,,---,0.00,618.00,VWS V14.01,2013-08-14 20:45:00,
2013-08-14 15:49:00,79.6,58.2,29.87,North,350,5.0,11.0,48,0.00,,---,0.00,750.00,VWS V14.01,2013-08-14 20:49:00,
2013-08-14 15:50:00,79.6,57.6,29.87,WNW,302,3.0,11.0,47,0.00,,---,0.00,755.00,VWS V14.01,2013-08-14 20:50:00,
2013-08-14 15:54:00,79.6,57.0,29.87,North,0,5.0,11.0,46,0.00,,---,0.00,230.00,VWS V14.01,2013-08-14 20:54:00,
2013-08-14 15:55:00,79.8,56.6,29.87,North,356,7.0,11.0,45,0.00,,---,0.00,230.00,VWS V14.01,2013-08-14 20:55:00,
2013-08-14 15:59:00,79.8,56.6,29.86,North,357,5.0,8.0,45,0.00,,---,0.00,730.00,VWS V14.01,2013-08-14 20:59:00,
2013-08-14 16:00:00,79.9,55.4,29.86,SW,234,3.0,8.0,43,0.00,,---,0.00,730.00,VWS V14.01,2013-08-14 21:00:00,
2013-08-14 16:05:00,79.9,57.3,29.86,North,0,3.0,11.0,46,0.00,,---,0.00,750.00,VWS V14.01,2013-08-14 21:05:00,
2013-08-14 16:10:00,79.9,58.5,29.86,NNW,347,11.0,12.0,48,0.00,,---,0.00,730.00,VWS V14.01,2013-08-14 21:10:00,
2013-08-14 16:15:00,79.8,58.4,29.86,North,357,5.0,12.0,48,0.00,,---,0.00,700.00,VWS V14.01,2013-08-14 21:15:00,
2013-08-14 16:20:00,80.1,58.7,29.86,North,0,8.0,8.0,48,0.00,,---,0.00,725.00,VWS V14.01,2013-08-14 21:20:00,
2013-08-14 16:25:00,80.7,58.6,29.86,South,188,5.0,11.0,47,0.00,,---,0.00,700.00,VWS V14.01,2013-08-14 21:25:00,
2013-08-14 16:30:00,80.9,58.2,29.86,SSE,160,6.0,11.0,46,0.00,,---,0.00,148.00,VWS V14.01,2013-08-14 21:30:00,
2013-08-14 16:35:00,80.5,56.6,29.86,North,352,11.0,11.0,44,0.00,,---,0.00,653.00,VWS V14.01,2013-08-14 21:35:00,
2013-08-14 16:40:00,80.5,57.8,29.86,NNW,343,4.0,11.0,46,0.00,,---,0.00,639.00,VWS V14.01,2013-08-14 21:40:00,
2013-08-14 16:45:00,80.5,57.2,29.85,North,354,5.0,6.0,45,0.00,,---,0.00,493.00,VWS V14.01,2013-08-14 21:45:00,
2013-08-14 16:50:00,80.7,58.0,29.85,North,356,3.0,11.0,46,0.00,,---,0.00,584.00,VWS V14.01,2013-08-14 21:50:00,
2013-08-14 16:51:00,80.7,58.0,29.85,North,352,6.0,6.0,46,0.00,,---,0.00,588.00,VWS V14.01,2013-08-14 21:51:00,
2013-08-14 16:55:00,80.7,57.4,29.85,NNW,335,4.0,13.0,45,0.00,,---,0.00,582.00,VWS V14.01,2013-08-14 21:55:00,
2013-08-14 16:56:00,80.7,57.4,29.85,North,359,2.0,4.0,45,0.00,,---,0.00,581.00,VWS V14.01,2013-08-14 21:56:00,
2013-08-14 17:00:00,80.9,58.8,29.85,North,350,0.0,7.0,47,0.00,,---,0.00,588.00,VWS V14.01,2013-08-14 22:00:00,
2013-08-14 17:01:00,80.9,59.4,29.85,SW,232,2.0,2.0,48,0.00,,---,0.00,586.00,VWS V14.01,2013-08-14 22:01:00,
2013-08-14 17:05:00,81.1,57.2,29.85,North,359,3.0,8.0,44,0.00,,---,0.00,549.00,VWS V14.01,2013-08-14 22:05:00,
2013-08-14 17:06:00,81.1,57.2,29.85,NW,312,0.0,5.0,44,0.00,,---,0.00,517.00,VWS V14.01,2013-08-14 22:06:00,
2013-08-14 17:10:00,81.1,57.8,29.85,SSE,151,10.0,10.0,45,0.00,,---,0.00,568.00,VWS V14.01,2013-08-14 22:10:00,
2013-08-14 17:11:00,80.9,57.0,29.85,North,0,3.0,11.0,44,0.00,,---,0.00,556.00,VWS V14.01,2013-08-14 22:11:00,
2013-08-14 17:15:00,80.9,58.8,29.84,South,179,9.0,11.0,47,0.00,,---,0.00,438.00,VWS V14.01,2013-08-14 22:15:00,
2013-08-14 17:16:00,80.7,57.4,29.84,NNW,346,5.0,9.0,45,0.00,,---,0.00,408.00,VWS V14.01,2013-08-14 22:16:00,
2013-08-14 17:20:00,80.3,57.7,29.84,NNW,337,8.0,11.0,46,0.00,,---,0.00,283.00,VWS V14.01,2013-08-14 22:20:00,
2013-08-14 17:21:00,80.1,57.5,29.84,NNW,347,4.0,11.0,46,0.00,,---,0.00,283.00,VWS V14.01,2013-08-14 22:21:00,
2013-08-14 17:25:00,79.9,58.5,29.84,North,0,3.0,11.0,48,0.00,,---,0.00,188.00,VWS V14.01,2013-08-14 22:25:00,
2013-08-14 17:26:00,79.8,58.4,29.84,North,0,3.0,4.0,48,0.00,,---,0.00,190.00,VWS V14.01,2013-08-14 22:26:00,
2013-08-14 17:30:00,79.6,59.3,29.84,North,349,1.0,7.0,50,0.00,,---,0.00,213.00,VWS V14.01,2013-08-14 22:30:00,
2013-08-14 17:32:00,79.6,59.9,29.84,North,356,5.0,5.0,51,0.00,,---,0.00,239.00,VWS V14.01,2013-08-14 22:32:00,
2013-08-14 17:35:00,79.4,60.3,29.84,North,0,7.0,11.0,52,0.00,,---,0.00,199.00,VWS V14.01,2013-08-14 22:35:00,
2013-08-14 17:37:00,79.2,60.1,29.84,North,0,7.0,8.0,52,0.00,,---,0.00,190.00,VWS V14.01,2013-08-14 22:37:00,
2013-08-14 17:40:00,78.8,61.3,29.84,SE,124,6.0,8.0,55,0.00,,---,0.00,195.00,VWS V14.01,2013-08-14 22:40:00,
2013-08-14 17:42:00,78.6,60.1,29.84,North,0,3.0,7.0,53,0.00,,---,0.00,190.00,VWS V14.01,2013-08-14 22:42:00,
2013-08-14 17:45:00,78.6,60.1,29.84,NW,320,2.0,8.0,53,0.00,,---,0.00,197.00,VWS V14.01,2013-08-14 22:45:00,
2013-08-14 17:47:00,78.6,60.1,29.84,North,357,5.0,6.0,53,0.00,,---,0.00,188.00,VWS V14.01,2013-08-14 22:47:00,
2013-08-14 17:50:00,78.6,60.6,29.84,ESE,123,7.0,8.0,54,0.00,,---,0.00,181.00,VWS V14.01,2013-08-14 22:50:00,
2013-08-14 17:52:00,78.6,60.6,29.84,North,352,5.0,7.0,54,0.00,,---,0.00,183.00,VWS V14.01,2013-08-14 22:52:00,
2013-08-14 17:55:00,78.6,60.6,29.84,North,349,6.0,7.0,54,0.00,,---,0.00,178.00,VWS V14.01,2013-08-14 22:55:00,
2013-08-14 17:57:00,78.5,60.5,29.84,North,349,7.0,8.0,54,0.00,,---,0.00,167.00,VWS V14.01,2013-08-14 22:57:00,
2013-08-14 18:00:00,78.5,60.5,29.84,North,0,7.0,8.0,54,0.00,,---,0.00,165.00,VWS V14.01,2013-08-14 23:00:00,
2013-08-14 18:03:00,78.5,61.0,29.84,North,354,8.0,8.0,55,0.00,,---,0.00,178.00,VWS V14.01,2013-08-14 23:03:00,
2013-08-14 18:05:00,78.3,60.3,29.84,West,272,5.0,8.0,54,0.00,,---,0.00,167.00,VWS V14.01,2013-08-14 23:05:00,
2013-08-14 18:08:00,78.3,60.3,29.84,North,0,7.0,9.0,54,0.00,,---,0.00,151.00,VWS V14.01,2013-08-14 23:08:00,
2013-08-14 18:10:00,78.1,59.6,29.84,NNW,347,4.0,9.0,53,0.00,,---,0.00,157.00,VWS V14.01,2013-08-14 23:10:00,
2013-08-14 18:13:00,78.1,60.6,29.84,North,352,3.0,7.0,55,0.00,,---,0.00,162.00,VWS V14.01,2013-08-14 23:13:00,
2013-08-14 18:15:00,78.1,61.1,29.84,North,349,6.0,7.0,56,0.00,,---,0.00,174.00,VWS V14.01,2013-08-14 23:15:00,
2013-08-14 18:18:00,78.3,61.8,29.84,NW,304,6.0,7.0,57,0.00,,---,0.00,174.00,VWS V14.01,2013-08-14 23:18:00,
2013-08-14 18:20:00,78.1,60.6,29.84,North,0,5.0,7.0,55,0.00,,---,0.00,179.00,VWS V14.01,2013-08-14 23:20:00,
2013-08-14 18:23:00,78.1,61.1,29.84,North,353,3.0,6.0,56,0.00,,---,0.00,183.00,VWS V14.01,2013-08-14 23:23:00,
2013-08-14 18:25:00,78.1,61.6,29.84,SSW,202,2.0,7.0,57,0.00,,---,0.00,178.00,VWS V14.01,2013-08-14 23:25:00,
2013-08-14 18:28:00,78.1,61.6,29.84,North,350,3.0,4.0,57,0.00,,---,0.00,158.00,VWS V14.01,2013-08-14 23:28:00,
2013-08-14 18:30:00,78.1,61.6,29.83,North,0,2.0,6.0,57,0.00,,---,0.00,148.00,VWS V14.01,2013-08-14 23:30:00,
2013-08-14 18:33:00,78.1,61.6,29.83,South,188,1.0,7.0,57,0.00,,---,0.00,135.00,VWS V14.01,2013-08-14 23:33:00,
2013-08-14 18:35:00,78.1,62.1,29.83,South,169,2.0,7.0,58,0.00,,---,0.00,130.00,VWS V14.01,2013-08-14 23:35:00,
2013-08-14 18:38:00,77.9,62.0,29.83,SW,232,5.0,6.0,58,0.00,,---,0.00,127.00,VWS V14.01,2013-08-14 23:38:00,
2013-08-14 18:40:00,77.9,62.4,29.83,North,352,5.0,7.0,59,0.00,,---,0.00,127.00,VWS V14.01,2013-08-14 23:40:00,
2013-08-14 18:43:00,77.7,61.8,29.83,North,0,6.0,8.0,58,0.00,,---,0.00,144.00,VWS V14.01,2013-08-14 23:43:00,
2013-08-14 18:45:00,77.6,61.7,29.82,North,0,4.0,8.0,58,0.00,,---,0.00,146.00,VWS V14.01,2013-08-14 23:45:00,
2013-08-14 18:49:00,77.4,61.5,29.82,NNW,343,6.0,8.0,58,0.00,,---,0.00,243.00,VWS V14.01,2013-08-14 23:49:00,
2013-08-14 18:50:00,77.4,61.5,29.82,SE,133,5.0,8.0,58,0.00,,---,0.00,230.00,VWS V14.01,2013-08-14 23:50:00,
2013-08-14 18:54:00,77.4,61.0,29.82,North,352,6.0,8.0,57,0.00,,---,0.00,220.00,VWS V14.01,2013-08-14 23:54:00,
2013-08-14 18:55:00,77.4,61.0,29.82,North,0,6.0,9.0,57,0.00,,---,0.00,209.00,VWS V14.01,2013-08-14 23:55:00,
2013-08-14 18:59:00,77.4,61.5,29.82,North,354,7.0,10.0,58,0.00,,---,0.00,128.00,VWS V14.01,2013-08-14 23:59:00,
2013-08-14 19:00:00,77.4,61.0,29.82,WNW,299,6.0,10.0,57,0.00,,---,0.00,121.00,VWS V14.01,2013-08-15 00:00:00,
2013-08-14 19:04:00,77.2,60.8,29.82,North,0,8.0,8.0,57,0.00,,---,0.00,99.00,VWS V14.01,2013-08-15 00:04:00,
2013-08-14 19:05:00,77.2,61.3,29.82,North,350,3.0,9.0,58,0.00,,---,0.00,95.00,VWS V14.01,2013-08-15 00:05:00,
2013-08-14 19:09:00,77.0,61.1,29.82,NNW,347,5.0,7.0,58,0.00,,---,0.00,69.00,VWS V14.01,2013-08-15 00:09:00,
2013-08-14 19:10:00,76.8,60.9,29.82,North,354,6.0,8.0,58,0.00,,---,0.00,63.00,VWS V14.01,2013-08-15 00:10:00,
2013-08-14 19:14:00,76.7,61.3,29.82,North,0,5.0,7.0,59,0.00,,---,0.00,55.00,VWS V14.01,2013-08-15 00:14:00,
2013-08-14 19:15:00,76.7,61.8,29.82,WNW,292,6.0,7.0,60,0.00,,---,0.00,55.00,VWS V14.01,2013-08-15 00:15:00,
2013-08-14 19:19:00,76.5,61.6,29.82,North,0,4.0,7.0,60,0.00,,---,0.00,48.00,VWS V14.01,2013-08-15 00:19:00,
2013-08-14 19:20:00,76.3,61.4,29.82,SSW,205,4.0,7.0,60,0.00,,---,0.00,48.00,VWS V14.01,2013-08-15 00:20:00,
2013-08-14 19:24:00,76.1,61.7,29.82,North,356,6.0,6.0,61,0.00,,---,0.00,44.00,VWS V14.01,2013-08-15 00:24:00,
2013-08-14 19:25:00,76.1,61.7,29.82,NNW,347,4.0,6.0,61,0.00,,---,0.00,44.00,VWS V14.01,2013-08-15 00:25:00,
2013-08-14 19:29:00,75.8,61.9,29.82,SE,144,4.0,6.0,62,0.00,,---,0.00,35.00,VWS V14.01,2013-08-15 00:29:00,
2013-08-14 19:30:00,75.8,61.9,29.82,North,352,4.0,6.0,62,0.00,,---,0.00,35.00,VWS V14.01,2013-08-15 00:30:00,
2013-08-14 19:34:00,75.6,61.7,29.82,SE,141,4.0,6.0,62,0.00,,---,0.00,35.00,VWS V14.01,2013-08-15 00:34:00,
2013-08-14 19:35:00,75.6,62.1,29.82,SE,127,2.0,6.0,63,0.00,,---,0.00,35.00,VWS V14.01,2013-08-15 00:35:00,
2013-08-14 19:39:00,75.4,61.9,29.82,North,0,6.0,6.0,63,0.00,,---,0.00,30.00,VWS V14.01,2013-08-15 00:39:00,
2013-08-14 19:40:00,75.4,61.9,29.82,North,350,4.0,7.0,63,0.00,,---,0.00,30.00,VWS V14.01,2013-08-15 00:40:00,
2013-08-14 19:45:00,75.3,62.3,29.82,North,359,5.0,6.0,64,0.00,,---,0.00,33.00,VWS V14.01,2013-08-15 00:45:00,
2013-08-14 19:50:00,75.1,62.1,29.82,North,353,6.0,6.0,64,0.00,,---,0.00,23.00,VWS V14.01,2013-08-15 00:50:00,
2013-08-14 19:55:00,74.9,61.9,29.82,North,353,5.0,7.0,64,0.00,,---,0.00,19.00,VWS V14.01,2013-08-15 00:55:00,
2013-08-14 20:00:00,74.6,62.1,29.82,North,0,6.0,7.0,65,0.00,,---,0.00,18.00,VWS V14.01,2013-08-15 01:00:00,
2013-08-14 20:05:00,74.4,61.9,29.82,North,0,4.0,7.0,65,0.00,,---,0.00,16.00,VWS V14.01,2013-08-15 01:05:00,
2013-08-14 20:10:00,74.2,61.7,29.82,North,0,7.0,7.0,65,0.00,,---,0.00,9.00,VWS V14.01,2013-08-15 01:10:00,
2013-08-14 20:15:00,74.0,61.5,29.82,North,359,5.0,7.0,65,0.00,,---,0.00,0.00,VWS V14.01,2013-08-15 01:15:00,
2013-08-14 20:20:00,73.9,61.4,29.82,North,0,6.0,7.0,65,0.00,,---,0.00,0.00,VWS V14.01,2013-08-15 01:20:00,
2013-08-14 20:25:00,73.7,61.7,29.82,WNW,292,6.0,7.0,66,0.00,,---,0.00,0.00,VWS V14.01,2013-08-15 01:25:00,
2013-08-14 20:30:00,73.5,61.9,29.83,North,352,6.0,7.0,67,0.00,,---,0.00,0.00,VWS V14.01,2013-08-15 01:30:00,
2013-08-14 20:35:00,73.3,61.7,29.83,SSE,168,5.0,7.0,67,0.00,,---,0.00,0.00,VWS V14.01,2013-08-15 01:35:00,
2013-08-14 20:40:00,73.2,62.0,29.83,WNW,284,4.0,6.0,68,0.00,,---,0.00,0.00,VWS V14.01,2013-08-15 01:40:00,
2013-08-14 20:45:00,73.0,61.8,29.83,North,349,5.0,6.0,68,0.00,,---,0.00,0.00,VWS V14.01,2013-08-15 01:45:00,
2013-08-14 20:50:00,72.8,62.0,29.83,SE,127,6.0,7.0,69,0.00,,---,0.00,0.00,VWS V14.01,2013-08-15 01:50:00,
2013-08-14 20:51:00,72.8,62.0,29.83,North,0,6.0,6.0,69,0.00,,---,0.00,0.00,VWS V14.01,2013-08-15 01:51:00,
2013-08-14 20:55:00,72.5,62.2,29.83,NNW,346,6.0,7.0,70,0.00,,---,0.00,0.00,VWS V14.01,2013-08-15 01:55:00,
2013-08-14 20:56:00,72.5,62.2,29.83,North,353,3.0,6.0,70,0.00,,---,0.00,0.00,VWS V14.01,2013-08-15 01:56:00,
2013-08-14 21:00:00,72.3,62.4,29.83,NNW,340,5.0,7.0,71,0.00,,---,0.00,0.00,VWS V14.01,2013-08-15 02:00:00,
2013-08-14 21:01:00,72.3,62.4,29.83,West,264,5.0,6.0,71,0.00,,---,0.00,0.00,VWS V14.01,2013-08-15 02:01:00,
2013-08-14 21:05:00,72.1,62.2,29.83,North,0,5.0,7.0,71,0.00,,---,0.00,0.00,VWS V14.01,2013-08-15 02:05:00,
2013-08-14 21:06:00,72.0,62.1,29.83,North,0,7.0,7.0,71,0.00,,---,0.00,0.00,VWS V14.01,2013-08-15 02:06:00,
2013-08-14 21:10:00,71.8,62.3,29.83,North,350,7.0,7.0,72,0.00,,---,0.00,0.00,VWS V14.01,2013-08-15 02:10:00,
2013-08-14 21:11:00,71.8,62.3,29.83,North,350,6.0,7.0,72,0.00,,---,0.00,0.00,VWS V14.01,2013-08-15 02:11:00,
2013-08-14 21:15:00,71.8,62.3,29.83,North,0,7.0,8.0,72,0.00,,---,0.00,0.00,VWS V14.01,2013-08-15 02:15:00,
2013-08-14 21:16:00,71.8,62.3,29.83,North,352,7.0,7.0,72,0.00,,---,0.00,0.00,VWS V14.01,2013-08-15 02:16:00,
2013-08-14 21:20:00,71.6,62.1,29.83,NNW,347,7.0,8.0,72,0.00,,---,0.00,0.00,VWS V14.01,2013-08-15 02:20:00,
2013-08-14 21:21:00,71.6,62.1,29.83,North,354,6.0,7.0,72,0.00,,---,0.00,0.00,VWS V14.01,2013-08-15 02:21:00,
2013-08-14 21:25:00,71.6,62.5,29.83,SSE,167,5.0,7.0,73,0.00,,---,0.00,0.00,VWS V14.01,2013-08-15 02:25:00,
2013-08-14 21:26:00,71.6,62.5,29.83,North,0,7.0,7.0,73,0.00,,---,0.00,0.00,VWS V14.01,2013-08-15 02:26:00,
2013-08-14 21:30:00,71.5,62.4,29.83,North,0,5.0,7.0,73,0.00,,---,0.00,0.00,VWS V14.01,2013-08-15 02:30:00,
2013-08-14 21:31:00,71.5,62.4,29.83,West,281,5.0,7.0,73,0.00,,---,0.00,0.00,VWS V14.01,2013-08-15 02:31:00,
2013-08-14 21:35:00,71.3,62.6,29.83,ESE,123,7.0,8.0,74,0.00,,---,0.00,0.00,VWS V14.01,2013-08-15 02:35:00,
2013-08-14 21:36:00,71.3,62.6,29.83,NNW,346,6.0,8.0,74,0.00,,---,0.00,0.00,VWS V14.01,2013-08-15 02:36:00,
2013-08-14 21:40:00,71.1,62.4,29.83,WSW,248,6.0,8.0,74,0.00,,---,0.00,0.00,VWS V14.01,2013-08-15 02:40:00,
2013-08-14 21:41:00,70.9,62.2,29.83,North,0,7.0,7.0,74,0.00,,---,0.00,0.00,VWS V14.01,2013-08-15 02:41:00,
2013-08-14 21:45:00,70.9,62.6,29.84,NNW,337,5.0,7.0,75,0.00,,---,0.00,0.00,VWS V14.01,2013-08-15 02:45:00,
2013-08-14 21:46:00,70.9,62.6,29.84,NNW,347,6.0,7.0,75,0.00,,---,0.00,0.00,VWS V14.01,2013-08-15 02:46:00,
2013-08-14 21:50:00,70.8,62.5,29.84,South,176,7.0,8.0,75,0.00,,---,0.00,0.00,VWS V14.01,2013-08-15 02:50:00,
2013-08-14 21:51:00,70.8,62.5,29.84,North,0,8.0,8.0,75,0.00,,---,0.00,0.00,VWS V14.01,2013-08-15 02:51:00,
2013-08-14 21:55:00,70.6,62.3,29.84,SW,232,6.0,8.0,75,0.00,,---,0.00,0.00,VWS V14.01,2013-08-15 02:55:00,
2013-08-14 21:57:00,70.6,62.3,29.84,North,0,5.0,7.0,75,0.00,,---,0.00,0.00,VWS V14.01,2013-08-15 02:57:00,
2013-08-14 22:00:00,70.4,62.1,29.85,North,350,3.0,7.0,75,0.00,,---,0.00,0.00,VWS V14.01,2013-08-15 03:00:00,
2013-08-14 22:02:00,70.4,62.1,29.85,North,0,6.0,7.0,75,0.00,,---,0.00,0.00,VWS V14.01,2013-08-15 03:02:00,
2013-08-14 22:05:00,70.3,62.4,29.85,North,353,6.0,7.0,76,0.00,,---,0.00,0.00,VWS V14.01,2013-08-15 03:05:00,
2013-08-14 22:07:00,70.3,62.4,29.85,NNW,347,6.0,7.0,76,0.00,,---,0.00,0.00,VWS V14.01,2013-08-15 03:07:00,
2013-08-14 22:10:00,70.1,62.2,29.85,NNW,336,8.0,8.0,76,0.00,,---,0.00,0.00,VWS V14.01,2013-08-15 03:10:00,
2013-08-14 22:12:00,70.1,62.2,29.85,NNW,347,7.0,8.0,76,0.00,,---,0.00,0.00,VWS V14.01,2013-08-15 03:12:00,
2013-08-14 22:15:00,69.9,62.0,29.84,North,0,8.0,9.0,76,0.00,,---,0.00,0.00,VWS V14.01,2013-08-15 03:15:00,
2013-08-14 22:17:00,69.9,62.0,29.84,NNW,347,10.0,10.0,76,0.00,,---,0.00,0.00,VWS V14.01,2013-08-15 03:17:00,
2013-08-14 22:20:00,69.8,61.9,29.84,North,359,7.0,11.0,76,0.00,,---,0.00,0.00,VWS V14.01,2013-08-15 03:20:00,
2013-08-14 22:22:00,69.8,61.9,29.84,North,0,7.0,11.0,76,0.00,,---,0.00,0.00,VWS V14.01,2013-08-15 03:22:00,
2013-08-14 22:25:00,69.8,61.9,29.84,North,350,7.0,11.0,76,0.00,,---,0.00,0.00,VWS V14.01,2013-08-15 03:25:00,
2013-08-14 22:27:00,69.8,61.9,29.84,NNW,332,10.0,10.0,76,0.00,,---,0.00,0.00,VWS V14.01,2013-08-15 03:27:00,
2013-08-14 22:30:00,69.6,61.7,29.85,North,352,7.0,10.0,76,0.00,,---,0.00,0.00,VWS V14.01,2013-08-15 03:30:00,
2013-08-14 22:32:00,69.6,61.7,29.85,ESE,123,6.0,10.0,76,0.00,,---,0.00,0.00,VWS V14.01,2013-08-15 03:32:00,
2013-08-14 22:35:00,69.4,61.9,29.85,SE,138,8.0,11.0,77,0.00,,---,0.00,0.00,VWS V14.01,2013-08-15 03:35:00,
2013-08-14 22:37:00,69.4,61.9,29.85,North,349,11.0,11.0,77,0.00,,---,0.00,0.00,VWS V14.01,2013-08-15 03:37:00,
2013-08-14 22:40:00,69.3,62.2,29.85,South,181,8.0,11.0,78,0.00,,---,0.00,0.00,VWS V14.01,2013-08-15 03:40:00,
2013-08-14 22:42:00,69.3,62.2,29.85,NNW,346,12.0,12.0,78,0.00,,---,0.00,0.00,VWS V14.01,2013-08-15 03:42:00,
2013-08-14 22:45:00,69.1,62.0,29.85,North,0,10.0,12.0,78,0.00,,---,0.00,0.00,VWS V14.01,2013-08-15 03:45:00,
2013-08-14 22:47:00,68.9,61.8,29.85,SE,136,7.0,11.0,78,0.00,,---,0.00,0.00,VWS V14.01,2013-08-15 03:47:00,
2013-08-14 22:50:00,68.9,61.8,29.85,North,0,7.0,11.0,78,0.00,,---,0.00,0.00,VWS V14.01,2013-08-15 03:50:00,
2013-08-14 22:52:00,68.9,61.8,29.85,West,274,8.0,11.0,78,0.00,,---,0.00,0.00,VWS V14.01,2013-08-15 03:52:00,
2013-08-14 22:55:00,68.8,61.7,29.85,NNW,346,6.0,11.0,78,0.00,,---,0.00,0.00,VWS V14.01,2013-08-15 03:55:00,
2013-08-14 22:57:00,68.8,61.7,29.85,NNW,344,7.0,8.0,78,0.00,,---,0.00,0.00,VWS V14.01,2013-08-15 03:57:00,
2013-08-14 23:00:00,68.8,62.0,29.85,NNW,344,4.0,11.0,79,0.00,,---,0.00,0.00,VWS V14.01,2013-08-15 04:00:00,
2013-08-14 23:01:00,68.8,62.0,29.85,NNW,346,6.0,6.0,79,0.00,,---,0.00,0.00,VWS V14.01,2013-08-15 04:01:00,
2013-08-14 23:02:00,68.6,61.8,29.85,North,353,11.0,11.0,79,0.00,,---,0.00,0.00,VWS V14.01,2013-08-15 04:02:00,
2013-08-14 23:03:00,68.6,61.8,29.85,North,356,5.0,11.0,79,0.00,,---,0.00,0.00,VWS V14.01,2013-08-15 04:03:00,
2013-08-14 23:05:00,68.6,61.8,29.85,North,0,6.0,11.0,79,0.00,,---,0.00,0.00,VWS V14.01,2013-08-15 04:05:00,
2013-08-14 23:08:00,68.4,61.6,29.85,NNW,346,4.0,8.0,79,0.00,,---,0.00,0.00,VWS V14.01,2013-08-15 04:08:00,
2013-08-14 23:10:00,68.4,61.6,29.85,North,353,5.0,10.0,79,0.00,,---,0.00,0.00,VWS V14.01,2013-08-15 04:10:00,
2013-08-14 23:13:00,68.3,61.5,29.85,North,349,6.0,8.0,79,0.00,,---,0.00,0.00,VWS V14.01,2013-08-15 04:13:00,
2013-08-14 23:15:00,68.3,61.5,29.85,SE,141,7.0,10.0,79,0.00,,---,0.00,0.00,VWS V14.01,2013-08-15 04:15:00,
2013-08-14 23:18:00,68.3,61.5,29.85,North,0,5.0,10.0,79,0.00,,---,0.00,0.00,VWS V14.01,2013-08-15 04:18:00,
2013-08-14 23:20:00,68.1,61.3,29.85,North,0,5.0,10.0,79,0.00,,---,0.00,0.00,VWS V14.01,2013-08-15 04:20:00,
2013-08-14 23:23:00,68.1,61.3,29.85,North,0,6.0,8.0,79,0.00,,---,0.00,0.00,VWS V14.01,2013-08-15 04:23:00,
2013-08-14 23:25:00,68.1,61.7,29.85,North,357,11.0,11.0,80,0.00,,---,0.00,0.00,VWS V14.01,2013-08-15 04:25:00,
2013-08-14 23:28:00,67.9,61.5,29.85,North,357,3.0,11.0,80,0.00,,---,0.00,0.00,VWS V14.01,2013-08-15 04:28:00,
2013-08-14 23:30:00,67.9,61.5,29.85,North,356,10.0,11.0,80,0.00,,---,0.00,0.00,VWS V14.01,2013-08-15 04:30:00,
2013-08-14 23:33:00,67.8,61.4,29.85,North,0,8.0,12.0,80,0.00,,---,0.00,0.00,VWS V14.01,2013-08-15 04:33:00,
2013-08-14 23:35:00,67.8,61.4,29.85,NW,323,7.0,12.0,80,0.00,,---,0.00,0.00,VWS V14.01,2013-08-15 04:35:00,
2013-08-14 23:38:00,67.6,61.2,29.85,North,0,10.0,10.0,80,0.00,,---,0.00,0.00,VWS V14.01,2013-08-15 04:38:00,
2013-08-14 23:40:00,67.6,61.6,29.85,SSW,198,6.0,11.0,81,0.00,,---,0.00,0.00,VWS V14.01,2013-08-15 04:40:00,
2013-08-14 23:43:00,67.4,61.4,29.85,NNW,346,7.0,10.0,81,0.00,,---,0.00,0.00,VWS V14.01,2013-08-15 04:43:00,
2013-08-14 23:45:00,67.4,61.4,29.85,North,356,7.0,10.0,81,0.00,,---,0.00,0.00,VWS V14.01,2013-08-15 04:45:00,
2013-08-14 23:48:00,67.3,61.6,29.85,NNW,347,5.0,9.0,82,0.00,,---,0.00,0.00,VWS V14.01,2013-08-15 04:48:00,
2013-08-14 23:50:00,67.1,61.4,29.85,SSE,162,2.0,9.0,82,0.00,,---,0.00,0.00,VWS V14.01,2013-08-15 04:50:00,
2013-08-14 23:53:00,67.1,61.4,29.85,North,0,6.0,8.0,82,0.00,,---,0.00,0.00,VWS V14.01,2013-08-15 04:53:00,
2013-08-14 23:55:00,66.9,61.2,29.85,South,182,3.0,8.0,82,0.00,,---,0.00,0.00,VWS V14.01,2013-08-15 04:55:00,
2013-08-14 23:59:00,66.9,61.2,29.85,SSW,206,2.0,8.0,82,0.00,,---,0.00,0.00,VWS V14.01,2013-08-15 04:59:00,